[[{"header":{"parameterUnit":"m.s-1","parameterCategory":1,"la1":30.2991,"la2":30.254,"lo1":-89.0895,"lo2":-89.0444,"dy":0.0017,"dx":0.0017,"nx":28,"ny":28,"refTime":"2025-09-17T21:00:00:Z","depth":0,"parameterNumber":2,"parameterNumberName":"U-component_of_WINDS"},"data":[0,0,0,0,0,0,0,0,0,0,0,0,0,0,0,0,0,0,0,0,0,0,0,0,0,0,0,0,0,0,0,0,0,0,0,0,0,0,0,0,0,0,0,0,0,0,0,0,0,0,0,0,0,0,0,0,0,0,0.2613,0.2613,0,0.258,0.258,0.2579,0.2556,0.2556,0.2556,0.2556,0.2519,0.2518,0.2517,0,0,0,0,0,0,0,0,0,0,0,0,0,0.2654,0.2654,0.2613,0.2613,0.2612,0.258,0.2579,0.2579,0.2556,0.2556,0.2556,0.2556,0.2519,0.2518,0.2517,0,0,0,0,0,0,0,0,0,0,0,0,0,0.263,0.2654,0.2613,0.2597,0.2595,0.258,0.2579,0.2579,0.2556,0.2556,0.2556,0.2555,0.2519,0.2518,0.2517,0.2514,0,0,0.2513,0.2513,0,0,0,0,0,0,0,0,0.2632,0.2629,0.26,0.2598,0.2596,0.2572,0.2581,0.2557,0.2556,0.2571,0.2556,0.2555,0.2537,0.2534,0.2528,0.2513,0.2511,0.2513,0.2512,0.2512,0.2512,0,0,0,0,0,0,0,0.2633,0.263,0.26,0.26,0.2597,0.2591,0.2587,0.2576,0.2555,0.257,0.2568,0.2564,0.2535,0.2529,0.2527,0.2511,0.2513,0.2512,0.2511,0.2511,0.249,0.2491,0,0,0,0,0,0,0.2638,0.2632,0.2601,0.2599,0.2614,0.259,0.2586,0.258,0.2556,0.2552,0.2565,0.2563,0.2532,0.2529,0.2526,0.252,0.2512,0.2511,0.251,0.249,0.249,0.2491,0,0,0,0,0,0,0.2639,0.2636,0.2602,0.2615,0.261,0.259,0.2583,0.2579,0.2573,0.2552,0.2548,0.2562,0.2531,0.2527,0.2517,0.2519,0.251,0.2509,0.249,0.249,0.2491,0.251,0,0,0,0,0,0,0.264,0.2636,0.2635,0.2615,0.261,0.2595,0.2583,0.2579,0.2572,0.257,0.2549,0.2545,0.2531,0.2519,0.2516,0.2517,0.2508,0.249,0.249,0.249,0.2509,0.2511,0.2513,0,0,0,0,0,0.2642,0.2642,0.2635,0.2632,0.2609,0.2596,0.2592,0.2577,0.2572,0.257,0.2557,0.2545,0.2519,0.2519,0.2515,0.2515,0.249,0.249,0.249,0.2509,0.2511,0.2513,0,0,0,0,0,0,0.2662,0.2639,0.2632,0.2625,0.2613,0.2592,0.259,0.258,0.2568,0.2567,0.2547,0.2543,0.2534,0.2524,0.2523,0.2511,0.2503,0.2503,0.2518,0.252,0.2522,0.2524,0.2507,0,0,0,0,0,0.2666,0.2658,0.2638,0.2634,0.2628,0.261,0.2604,0.2593,0.2579,0.2574,0.2559,0.2545,0.2533,0.2526,0.2515,0.2508,0.2502,0.2506,0.2508,0.2509,0.2509,0.2504,0.2505,0.2492,0.2492,0.2492,0,0,0.2673,0.266,0.2656,0.2638,0.2627,0.2618,0.2606,0.2598,0.2591,0.2572,0.2562,0.2551,0.2533,0.2525,0.2521,0.2516,0.2512,0.251,0.2511,0.251,0.2505,0.2506,0.2507,0.2492,0.2492,0.2492,0,0,0.2683,0.2672,0.2667,0.2657,0.2641,0.2629,0.2628,0.2608,0.26,0.259,0.2576,0.2567,0.2548,0.2536,0.2528,0.2533,0.2522,0.2529,0.2538,0.2533,0.2534,0.2535,0.2536,0.2537,0.2529,0.2529,0.2529,0,0.2694,0.2681,0.2666,0.2659,0.2651,0.2634,0.2629,0.2619,0.26,0.2594,0.259,0.2565,0.2553,0.2541,0.2542,0.2536,0.2534,0.2531,0.2536,0.2536,0.2537,0.2537,0.2538,0.253,0.253,0.253,0.253,0,0.2695,0.2687,0.2685,0.2667,0.2659,0.2653,0.2636,0.263,0.262,0.2608,0.2597,0.2582,0.2566,0.2563,0.2553,0.255,0.2547,0.2539,0.2531,0.2539,0.254,0.254,0.2532,0.2532,0.2531,0.2531,0,0,0.2716,0.269,0.269,0.2681,0.2663,0.2655,0.2648,0.2634,0.2628,0.2615,0.2608,0.2592,0.2585,0.2576,0.2564,0.256,0.2564,0.2553,0.2552,0.2555,0.2559,0.2564,0.2565,0.2557,0.2557,0.2557,0.256,0,0.2721,0.2708,0.2694,0.2686,0.2677,0.2662,0.2655,0.2642,0.2631,0.2621,0.2609,0.2598,0.2589,0.2583,0.2579,0.2565,0.2565,0.2564,0.2549,0.2549,0.2553,0.2565,0.2571,0.2574,0.256,0.256,0.256,0,0.2726,0.2715,0.2706,0.2687,0.2683,0.2678,0.2664,0.2655,0.264,0.2632,0.2622,0.261,0.26,0.2593,0.2579,0.258,0.2572,0.2565,0.2564,0.2562,0.2554,0.2562,0.2575,0.2575,0.256,0.256,0.256,0,0.2741,0.2724,0.2716,0.2709,0.2688,0.2684,0.2675,0.266,0.2652,0.2639,0.2634,0.262,0.2612,0.2601,0.2586,0.2582,0.2573,0.2565,0.2565,0.2566,0.2563,0.2563,0.2575,0.256,0.256,0.256,0.256,0,0.2749,0.2743,0.2722,0.2717,0.271,0.2694,0.2688,0.2677,0.2664,0.2656,0.2641,0.2634,0.2614,0.2604,0.2591,0.2581,0.2578,0.257,0.2567,0.2571,0.2572,0.2566,0.2565,0.256,0.256,0.256,0.256,0,0.2764,0.275,0.274,0.2721,0.2716,0.2712,0.2695,0.2689,0.2677,0.2667,0.2664,0.2645,0.2632,0.2616,0.2597,0.2589,0.258,0.2575,0.2585,0.2583,0.2584,0.2584,0.2591,0.2591,0.2577,0.2577,0.2578,0,0.2769,0.2765,0.2745,0.274,0.2731,0.2722,0.2714,0.2698,0.269,0.2673,0.2669,0.2655,0.2643,0.2624,0.2608,0.2594,0.2588,0.2591,0.2585,0.259,0.2587,0.2587,0.2586,0.2592,0.2593,0.2593,0.2593,0,0.278,0.2773,0.2763,0.275,0.2742,0.2731,0.2719,0.2715,0.2696,0.2688,0.2676,0.2667,0.2649,0.2635,0.2619,0.2608,0.2597,0.2595,0.2594,0.2598,0.2604,0.26,0.2588,0.2595,0.2594,0.2594,0.2594,0.2594,0.279,0.2785,0.2771,0.276,0.275,0.2739,0.2733,0.272,0.271,0.2694,0.2685,0.2673,0.2657,0.2635,0.2625,0.2614,0.261,0.2609,0.2608,0.2608,0.2609,0.2606,0.2611,0.2611,0.2611,0.2611,0.2611,0,0.2799,0.2789,0.2779,0.2764,0.2755,0.2747,0.2734,0.2726,0.2716,0.2703,0.2692,0.2677,0.2664,0.2647,0.2633,0.2627,0.2622,0.2624,0.2624,0.2621,0.2614,0.2616,0.2628,0.2628,0.2628,0.2628,0.2628,0.2628,0.2803,0.2794,0.2786,0.2772,0.2762,0.275,0.2743,0.2733,0.2723,0.2707,0.2696,0.2686,0.2671,0.2655,0.2642,0.2638,0.2632,0.2636,0.263,0.2623,0.2622,0.262,0.2622,0.2635,0.2635,0.2637,0.2637,0.2637]},{"header":{"parameterUnit":"m.s-1","parameterCategory":1,"la1":30.2991,"la2":30.254,"lo1":-89.0895,"lo2":-89.0444,"dy":0.0017,"dx":0.0017,"nx":28,"ny":28,"refTime":"2025-09-17T21:00:00:Z","depth":0,"parameterNumber":3,"parameterNumberName":"V-component_of_WINDS"},"data":[0,0,0,0,0,0,0,0,0,0,0,0,0,0,0,0,0,0,0,0,0,0,0,0,0,0,0,0,0,0,0,0,0,0,0,0,0,0,0,0,0,0,0,0,0,0,0,0,0,0,0,0,0,0,0,0,0,0,-2.8866,-2.8866,0,-2.89,-2.8901,-2.8901,-2.8864,-2.8863,-2.8861,-2.886,-2.8894,-2.8896,-2.8898,0,0,0,0,0,0,0,0,0,0,0,0,0,-2.8765,-2.8767,-2.8866,-2.8866,-2.8867,-2.89,-2.8901,-2.8901,-2.8865,-2.8863,-2.8861,-2.8859,-2.8893,-2.8896,-2.8898,0,0,0,0,0,0,0,0,0,0,0,0,0,-2.8805,-2.8768,-2.8866,-2.8853,-2.8852,-2.89,-2.8901,-2.8901,-2.8865,-2.8863,-2.8861,-2.8859,-2.8892,-2.8895,-2.8899,-2.8962,0,0,-2.8909,-2.891,0,0,0,0,0,0,0,0,-2.8803,-2.8809,-2.8854,-2.8854,-2.8853,-2.8876,-2.8878,-2.8922,-2.8865,-2.886,-2.886,-2.8858,-2.8889,-2.8893,-2.8904,-2.8963,-2.8965,-2.8909,-2.8911,-2.8912,-2.8913,0,0,0,0,0,0,0,-2.88,-2.8807,-2.8879,-2.8855,-2.8854,-2.8844,-2.8847,-2.8886,-2.8886,-2.886,-2.8858,-2.8862,-2.8889,-2.8901,-2.8904,-2.8965,-2.8909,-2.8912,-2.8914,-2.8915,-2.9075,-2.9077,0,0,0,0,0,0,-2.8799,-2.8805,-2.8878,-2.8881,-2.8822,-2.8847,-2.8851,-2.8871,-2.8886,-2.8886,-2.8864,-2.886,-2.8896,-2.8901,-2.8905,-2.8978,-2.8912,-2.8916,-2.8917,-2.9073,-2.9076,-2.9078,0,0,0,0,0,0,-2.8797,-2.8806,-2.8877,-2.8842,-2.885,-2.8851,-2.8874,-2.8872,-2.8884,-2.8888,-2.8888,-2.8877,-2.8895,-2.8901,-2.8947,-2.8979,-2.8917,-2.892,-2.907,-2.9074,-2.9077,-2.9126,0,0,0,0,0,0,-2.8795,-2.8806,-2.883,-2.8843,-2.8852,-2.892,-2.8876,-2.8875,-2.8891,-2.8886,-2.89,-2.89,-2.8893,-2.8943,-2.8951,-2.8982,-2.8923,-2.9067,-2.9072,-2.9076,-2.9121,-2.913,-2.9138,0,0,0,0,0,-2.8791,-2.8843,-2.8832,-2.8841,-2.8884,-2.8921,-2.8927,-2.8918,-2.8893,-2.8917,-2.892,-2.89,-2.8975,-2.8948,-2.8957,-2.899,-2.9065,-2.9071,-2.9075,-2.9117,-2.9129,-2.9138,0,0,0,0,0,0,-2.8834,-2.8844,-2.8832,-2.889,-2.8905,-2.8915,-2.8945,-2.8931,-2.8953,-2.8947,-2.8935,-2.8939,-2.8988,-2.8994,-2.8964,-2.905,-2.9016,-2.9023,-2.9045,-2.9055,-2.9063,-2.906,-2.8925,0,0,0,0,0,-2.885,-2.8881,-2.8888,-2.8938,-2.8946,-2.8945,-2.8961,-2.8953,-2.8968,-2.8974,-2.898,-2.8994,-2.9021,-2.9039,-2.9063,-2.9122,-2.9124,-2.9149,-2.9158,-2.9165,-2.917,-2.92,-2.9211,-2.9095,-2.9095,-2.9095,0,0,-2.8884,-2.8893,-2.8913,-2.8947,-2.8958,-2.8988,-2.895,-2.8985,-2.9007,-2.8979,-2.9023,-2.9028,-2.9043,-2.9096,-2.9119,-2.9102,-2.9203,-2.9171,-2.9177,-2.9179,-2.9206,-2.9217,-2.9227,-2.9098,-2.9098,-2.9097,0,0,-2.896,-2.8972,-2.9013,-2.9025,-2.9042,-2.904,-2.905,-2.9062,-2.9064,-2.9108,-2.9087,-2.9113,-2.916,-2.9171,-2.9183,-2.9262,-2.9244,-2.9271,-2.9314,-2.9343,-2.9352,-2.936,-2.9387,-2.9396,-2.9277,-2.9277,-2.9277,0,-2.9,-2.9046,-2.9037,-2.9072,-2.9087,-2.9063,-2.9104,-2.9116,-2.914,-2.915,-2.9131,-2.9187,-2.9196,-2.925,-2.9269,-2.928,-2.929,-2.9269,-2.9352,-2.936,-2.9367,-2.9392,-2.9402,-2.928,-2.928,-2.9279,-2.9279,0,-2.9093,-2.9125,-2.9157,-2.918,-2.9198,-2.9237,-2.9232,-2.9252,-2.9242,-2.9242,-2.9286,-2.9296,-2.9321,-2.9334,-2.9325,-2.9386,-2.9374,-2.9354,-2.9318,-2.9381,-2.9404,-2.9414,-2.9284,-2.9283,-2.9282,-2.9282,0,0,-2.9197,-2.9214,-2.9226,-2.9235,-2.9252,-2.9276,-2.9313,-2.9338,-2.9353,-2.9371,-2.94,-2.9439,-2.942,-2.9433,-2.9425,-2.9451,-2.951,-2.9427,-2.9427,-2.944,-2.9576,-2.959,-2.9601,-2.9499,-2.9501,-2.9503,-2.9574,0,-2.9272,-2.9336,-2.9328,-2.9389,-2.9418,-2.9395,-2.9426,-2.9439,-2.944,-2.9464,-2.9464,-2.9491,-2.9465,-2.9472,-2.9497,-2.9498,-2.9537,-2.9493,-2.9525,-2.9526,-2.952,-2.9614,-2.9629,-2.9696,-2.9583,-2.9585,-2.9586,0,-2.9369,-2.9389,-2.9453,-2.9463,-2.9475,-2.9503,-2.9524,-2.9548,-2.9561,-2.956,-2.9574,-2.9561,-2.9597,-2.9562,-2.9609,-2.9579,-2.9592,-2.9594,-2.9596,-2.9598,-2.9559,-2.9616,-2.9718,-2.9727,-2.9601,-2.9599,-2.9598,0,-2.9436,-2.948,-2.9523,-2.9532,-2.9545,-2.9565,-2.9572,-2.9583,-2.9598,-2.9617,-2.9626,-2.9648,-2.966,-2.9677,-2.967,-2.9646,-2.9718,-2.9683,-2.9717,-2.9717,-2.9732,-2.973,-2.9835,-2.9743,-2.9743,-2.9743,-2.9742,0,-2.9521,-2.956,-2.9553,-2.9579,-2.9622,-2.9612,-2.9654,-2.9658,-2.9668,-2.9693,-2.9675,-2.9699,-2.9689,-2.9713,-2.9707,-2.9746,-2.9752,-2.9751,-2.9749,-2.9752,-2.9751,-2.9758,-2.9753,-2.9745,-2.9745,-2.9744,-2.9744,0,-2.9603,-2.96,-2.9645,-2.9653,-2.9656,-2.9687,-2.9694,-2.9718,-2.9717,-2.975,-2.9757,-2.9755,-2.9782,-2.9776,-2.9806,-2.9802,-2.985,-2.9843,-2.9845,-2.9843,-2.9876,-2.9872,-2.9987,-3.0001,-2.9902,-2.9903,-2.9903,0,-2.9656,-2.9685,-2.9697,-2.9713,-2.972,-2.9747,-2.9761,-2.9752,-2.9768,-2.9785,-2.9807,-2.9831,-2.985,-2.9893,-2.9894,-2.9916,-2.9908,-2.9947,-2.9911,-2.9912,-2.9906,-2.9904,-2.9906,-2.9953,-2.9955,-2.9956,-2.9956,0,-2.975,-2.9746,-2.9769,-2.979,-2.9809,-2.9825,-2.984,-2.9854,-2.9846,-2.9865,-2.9891,-2.9906,-2.9935,-2.9959,-2.9979,-2.9985,-2.9969,-2.9968,-2.9976,-2.9978,-2.9978,-2.9977,-2.9863,-2.9965,-2.9964,-2.9963,-2.9963,-2.9962,-2.9818,-2.9842,-2.9853,-2.9878,-2.9888,-2.9902,-2.9924,-2.9926,-2.9948,-2.9971,-2.9965,-2.9994,-3.0005,-3.003,-3.0038,-3.006,-3.0046,-3.0058,-3.0061,-3.0064,-3.0067,-2.9976,-3.0064,-3.0064,-3.0064,-3.0063,-3.0063,0,-2.9909,-2.9915,-2.9938,-2.9958,-2.9978,-2.9962,-2.9977,-2.9994,-3.002,-3.0032,-3.0051,-3.008,-3.0103,-3.0106,-3.0127,-3.0144,-3.0137,-3.015,-3.0148,-3.0149,-3.008,-3.007,-3.0155,-3.0155,-3.0155,-3.0155,-3.0155,-3.0155,-2.9958,-2.9998,-2.9996,-3.0039,-3.0045,-3.0074,-3.0083,-3.0095,-3.0104,-3.0138,-3.0157,-3.0159,-3.0166,-3.0188,-3.0208,-3.0208,-3.0215,-3.0231,-3.0228,-3.0163,-3.0154,-3.0145,-3.0135,-3.0233,-3.0233,-3.0294,-3.0295,-3.0295]}]]